TIMESTAMP,CO2_1_1_1,H2O_1_1_1,TAU_1_1_1,TAU_SSITC_TEST_1_1_1,H_1_1_1,H_SSITC_TEST_1_1_1,LE_1_1_1,LE_SSITC_TEST_1_1_1,FC_1_1_1,FC_SSITC_TEST_1_1_1,WD_0_0_1,WS_0_0_1,WS_MAX_0_0_1,U_SIGMA_0_0_1,V_SIGMA_0_0_1,W_SIGMA_0_0_1,USTAR_0_0_1,MO_LENGTH_0_0_1,ZL_0_0_1,FETCH_MAX_0_0_1,FETCH_70_0_0_1,FETCH_80_0_0_1,FETCH_90_0_0_1,PA_0_0_1,RH_0_0_1,TA_0_0_1,VPD_0_0_1,T_SONIC_0_0_1,T_SONIC_SIGMA_0_0_1
[yyyymmddHHMMSS],[mmolCO2 mol-1],[mmolH2O mol-1],[kg m-1 s-2],[#],[W m-2],[#],[W m-2],[#],[umolCO2 m-2 s-1],[#],[Decimal degrees],[m s-1],[m s-1],[m s-1],[m s-1],[m s-1],[m s-1],[m],[#],[m],[m],[m],[m],[kPa],[%],[deg C],[hPa],[deg C],[deg C]
20220221003000,419.74687148754708,3.4840343362167552,0.69397866599927593,0,33.851684973944693,0,7.5070430919866302,1,0.30071978252844472,0,325.35583757396347,3.7861126405654284,9.7472829791609481,1.6411096544766099,1.2371759184208195,0.81794433460285720,0.75604220043968351,-1059.3938429313475,-1.7934784241738572E-002,117.57438908423914,214.96348167410278,257.25638512460858,322.05446702282507,93.438142730034727,79.715517241379317,-5.3841379310345019,0.82859855704811081,-5.8196443888347176,0.24683650304853955
20220221010000,419.90228982885901,3.3369385064885440,0.56094863406676165,0,18.591367298502337,0,3.0210968544418111,0,0.29424004867277753,0,328.82013952374052,3.7683433340464818,10.341465740029765,1.5763018546451255,1.2050871830366765,0.84064434113180453,0.67854727894857414,-1395.2904344407830,-1.3617236620428056E-002,105.49433901327579,192.87729741001741,230.82486345066874,288.96533836551396,93.513284738064257,80.593333333333334,-6.0833333333333144,0.75160528092640055,-6.5363631100124167,0.21114874491532748
20220221013000,419.97526706681430,3.2127819434562528,0.59275606826152916,0,12.190804869889051,0,2.5621876240077044,0,0.18136005768241251,0,330.53408561934873,3.6671495850019782,9.1166524353219209,1.4629501217006784,1.1361999638287215,0.78090067910044303,0.69665721036176642,-2303.9934741951115,-8.2465511351491796E-003,114.28614099895476,208.95151544126540,250.06159702150316,313.04744608235188,93.583008569262674,80.369000000000000,-6.5323333333333267,0.73459605394531879,-7.0521388120992015,0.20531250295013087
20220221020000,419.88760974767416,3.1056986121835979,0.85370606467846999,0,13.074711526383627,0,3.8427795578708053,1,0.32215583903855438,0,332.25746197362935,3.7609817782263497,10.081676329359805,1.7145713850938769,1.0407497439099258,0.83051087030626158,0.83508372844663703,-3701.3957294998222,-5.1331987683920282E-003,125.76582965524328,229.94004756387267,275.17950942636242,344.49209181332054,93.631524021701395,80.596666666666664,-7.0033333333333303,0.70025649175638194,-7.5294977099100606,0.15543021553551917
20220221023000,419.76643102042101,3.0492564977190280,0.70187387417626779,0,15.526726188041186,1,2.9635869667173176,0,0.27775048405997793,0,340.36611231438133,4.1632268891204740,10.506783673040706,1.7000890218027385,1.1451578628503178,0.81470395904916559,0.75642697773356360,-2317.2216276282434,-8.1994746525161505E-003,117.99636970464061,215.73499683201280,258.17969172090608,323.21033731784303,93.675141371093744,81.696666666666673,-7.4106666666666570,0.64011889414895562,-7.9759511256748397,0.21057446679127176
20220221030000,419.72859830876945,2.9825188366279090,0.55506935223439302,0,4.9736307517025731,0,1.2266220523632640,1,0.11182295660169303,0,342.94905252774277,3.6379463670519749,8.9832069536104608,1.4997462145201959,1.0605469412582966,0.76837953498353495,0.67204242139587811,-5073.7681283798229,-3.7447513404730935E-003,112.48940475236488,205.66650854286428,246.13028276658576,308.12590714191549,93.697493645399305,82.676666666666662,-7.8473333333333244,0.58570125142630902,-8.3806752243042411,0.13110896600976257
20220221033000,419.78228303072160,2.9236802012199341,0.47084817424878594,0,14.197497696508732,1,8.0840362853539780,1,0.27754374240423546,0,342.32014712815561,2.9810339750318846,8.2965466600831768,1.2652142706382010,1.0617129868083810,0.66191991958846796,0.61828367583497934,-1385.0354207848043,-1.3718060718789421E-002,118.56616239151093,216.77675958966850,259.42641567189906,324.77108776284041,93.788348170847115,83.153333333333336,-8.1653333333333080,0.55568612455685018,-8.6800860167052178,0.13067077077488182
20220221040000,419.80761573090632,2.8299590377377206,0.22791903659205648,0,1.7905154977442226,2,-3.3778792918048021E-002,2,0.14842291117643111,0,357.08436698308219,2.6187739588462300,7.2307119197591643,0.99849420910918585,0.90558195746667924,0.57700485430641402,0.42956753190339075,-3686.1689945512026,-5.1544028578411078E-003,98.886381477969223,180.79584353551425,216.36644880926312,270.86511893236963,93.896593651041655,83.290000000000006,-8.5896666666666874,0.53324900506801443,-9.1248693186441301,0.17187805728247957
20220221043000,419.82043625419516,2.6709079171759949,0.18126071026111695,0,0.71561940375585287,2,1.4122960042966073,0,0.10058003646223086,0,349.25308206938712,2.6161224240691756,6.6493470147098428,0.93315431500470558,0.74459240478258115,0.48471071223125928,0.38255041377805993,-6517.8908833924088,-2.9150534029975888E-003,103.61431170057766,189.44000787844737,226.71130577737537,283.81565229106161,93.980470117187508,81.713333333333338,-9.0733333333333235,0.56189430370375559,-9.6074555837842581,0.10149981437162342
20220221050000,419.87446420886147,2.6240747775973761,0.19269012716530240,0,9.0102524088104499,1,9.5813066193301086,1,0.28396056217254523,1,353.46363105445590,2.9009280622671185,7.6490965968767348,1.0085076292140944,0.82932772466819937,0.53760842341054538,0.39411720307651921,-566.22022043883032,-3.3555848615357951E-002,97.674761999543605,178.58061670273929,213.71538806725906,267.54630546969230,94.019052607943337,82.238000000000000,-9.3750000000000000,0.53300082671024374,-9.9195191715029978,0.13537384313575757
20220221053000,419.91373238659168,2.5234216113008676,0.22768872587668038,0,0.97146847962019733,1,1.7608427714770221,0,6.3116860112815004E-002,1,345.86452698518548,2.3572422982656405,6.4074332391726436,0.90585715660145283,0.80296491530667535,0.50283077663529663,0.42797806564609386,-6728.2694501720207,-2.8239059301518061E-003,110.06636597422327,201.23642086783926,240.82859927976068,301.48882853705936,94.088649724175355,81.256666666666661,-9.7099999999999795,0.54781177068962961,-10.240639094882454,9.4984785244843536E-002
20220221060000,420.07041240456795,2.4926536498428900,0.22610114442030194,0,4.7338127422315024,1,1.6556429686552636,1,2.4209783591552660E-002,2,348.14988914768395,2.8880676537372869,7.2350170335623201,0.97490183655701834,0.82682234070158467,0.52460036812370148,0.42615607077528161,-1363.4463287865801,-1.3935275337834046E-002,106.03444574906624,193.86478478125065,232.00663362624118,290.44477439138012,94.112554204644084,82.433333333333337,-10.044333333333327,0.50004890038796557,-10.592317526923239,0.13361580285826843
20220221063000,420.15346980075134,2.4330977836026237,0.25629011752185654,0,6.7337875371290634,1,5.4338636887315142,1,0.18634057439251916,0,358.97542966459241,2.5742334353435647,7.4801772584599089,1.0082804864252950,0.85347908079387669,0.56431183930276441,0.45335755883593160,-1154.0200535814968,-1.6464185298196141E-002,105.09746945846250,192.15169328876621,229.95650063940951,287.87825116949710,94.116344920007847,83.043333333333337,-10.442333333333352,0.46771016059183668,-10.970286836874266,0.11414721864309296
20220221070000,420.06806543295727,2.3678522914369990,0.36349736879653910,0,0.36125598647382018,2,2.1035533668343125,0,0.25944813487129770,0,12.911772939795895,2.6617287615182690,7.0052527587936702,1.1009768794672037,0.89261182560140151,0.66185073054835752,0.53960651744693477,-36277.398335086596,-5.2374207831832502E-004,106.34292632021904,194.42878565015002,232.68159861848187,291.28975046740578,94.139003194444456,82.329999999999998,-10.673000000000002,0.47854095948138509,-11.195761146969232,5.5622815622791116E-002
20220221073000,419.96872480194810,2.3211014447508367,0.38682752903732870,0,-1.0119145196422781,0,1.5746797296709705,0,0.13059492123664268,0,17.963341109266935,2.2826929247991639,6.6522594845964838,1.0815240149893484,0.73607335838264365,0.59397222036813091,0.55650587585306299,14208.043374636185,1.3372706923120946E-003,118.85509297046630,217.30501683768077,260.05860467898606,325.56251338143664,94.154999762803826,81.299999999999997,-10.763333333333321,0.50281132249514426,-11.277299914889852,4.2403615407271250E-002
20220221080000,420.05280690188420,2.3067703982427887,0.41870964307239544,0,-2.1254330178998018,1,1.5357780455790515,0,0.25318355259209480,0,16.912907941252911,2.5832835529498945,6.5956301493609120,1.1722133053744672,0.81303674981124208,0.57755488534445110,0.57883955031514256,7612.5298640825085,2.4958851182503641E-003,125.43734360945675,229.33947030692400,274.46077183936654,343.59231764290644,94.165415223524306,81.463333333333338,-10.865000000000009,0.49440372977732949,-11.381689550611668,4.8718386463630192E-002
20220221083000,420.14686375053833,2.2947695570259712,0.36905317264640786,0,-6.2969795526363814,2,-0.77600277880199475,2,0.14298449508999903,1,11.232382394693417,2.5719436338604380,7.3933772137186669,1.1344092519213254,0.84742415362663182,0.63076150776804352,0.54322041553816502,2124.0801932892427,8.9450483367003036E-003,111.10756259575930,203.14006036463763,243.10676956111681,304.34082739179723,94.188000434461813,81.976666666666674,-11.006333333333316,0.47533084357553973,-11.536020352398907,9.9434692367841235E-002
20220221090000,420.15026657127652,2.2121367452746599,0.34657716173080882,0,1.7694712640936574,2,-0.41707833240131159,2,8.8071391988247108E-002,0,10.561819614674363,2.9553954239414906,8.1497827991785918,1.2903396209607079,0.93911463554127861,0.61365538935645370,0.52594023940733503,-6862.4846664081870,-2.7686764959934792E-003,110.67878359455587,202.35611559838932,242.16858789820463,303.16633527851729,94.232796607594324,81.263333333333335,-11.350333333333310,0.48075988999638780,-11.904238841917447,0.14400948590468862
20220221093000,420.14369969650153,2.1640900182346181,0.49604409906233426,0,8.6122358576582485,1,0.65735357356076785,1,8.1181940584489826E-002,1,11.321963671912044,3.4847965415427802,8.7584667324232282,1.3852410250401148,1.0146604702614750,0.73594621422179518,0.62874499669798123,-2409.4390854679859,-7.8856527706362926E-003,110.39710200883252,201.84111182195301,241.55225991161021,302.39476577544053,94.262190493706584,81.466666666666669,-11.651999999999987,0.46419763018326904,-12.203965257008804,8.6107699843215382E-002
20220221100000,420.30609595550260,2.1373309745239233,0.66039951049576850,0,12.120724597450106,0,2.8000954807728662,1,8.8128168781190563E-002,1,16.939674492602904,3.4193675520387443,8.7770651690250059,1.5304909017450559,1.1092361105467246,0.77905905666657382,0.72513357077989415,-2626.0894798421273,-7.2350923857865740E-003,118.23144694718998,216.16479300543412,258.69404796901705,323.85425030474516,94.255624261501737,82.123333333333335,-11.908000000000015,0.43864734649334369,-12.460849510616754,0.10921160964232854
20220221103000,420.37302149968554,2.0637445433195301,1.1086084224611898,0,26.848709073969868,0,8.4291633431991215,1,0.33087945109840555,0,36.998440456898322,4.3369050064664840,10.570660506576026,1.8769460634940625,1.2687937653731856,0.92212914822298597,0.93906789623917752,-2574.7085965330102,-7.3794758853815796E-003,127.05129457424681,232.29028741381939,277.99214626711529,348.01317937831402,94.250205095495772,80.942666666666668,-12.164333333333332,0.45807790380334723,-12.742756333915622,0.10724050552796509
20220221110000,420.47552503388437,2.0065183726110738,0.57277312556305937,0,9.1133502138652016,0,0.75135290354293316,1,0.19480595434972300,0,42.803084361193527,3.6104887630013547,9.6475159590236572,1.4607022197653829,1.0707655483835323,0.73327787328566429,0.67473474722767246,-2813.8841605376051,-6.7522324715634224E-003,117.15113383773215,214.18963609315074,256.33028960712818,320.89510532943143,94.258986794270839,79.788666666666671,-12.334000000000003,0.47922133435472691,-12.893467248704667,5.0131417709498527E-002
20220221113000,420.53083007335937,1.9524468576132210,0.72625830986525053,0,17.058970199262401,0,5.4237715107712887,1,0.52285073390722048,0,46.081754106761451,3.8698051801560704,8.3899251290808703,1.4130635295113421,1.1203328482233190,0.84029640444613174,0.75948962823136246,-2144.3738566087081,-8.8603952810953346E-003,115.48521136537479,211.14379849496015,252.68519991987117,316.33188558306313,94.291417827039936,78.317333333333337,-12.437666666666644,0.50982680926694546,-13.007406692504844,4.7896530855612546E-002
20220221120000,420.62567704095920,1.9043698566051523,0.47224223309184138,0,10.312034011434205,0,3.7295679426263004,0,0.20479526201848766,1,35.316564691873026,3.1410492598659574,9.0043995296099464,1.3212580973472179,0.95786983788190527,0.65907401542252642,0.61217000590201964,-1858.4312050547987,-1.0223676802413439E-002,118.03347294618293,215.80283339102411,258.26087475634370,323.31196884468147,94.349309621961822,76.802666666666667,-12.497000000000014,0.54283553325840250,-13.057761152479372,5.0126576933902975E-002
20220221123000,420.87668231006785,1.9172331919711909,0.61095764268093489,0,8.9362789250167527,0,3.2157477890929820,1,0.33047510917027856,0,29.468786661372036,2.9677389835915693,9.7905608578624150,1.4061494964088472,1.0425633158423921,0.74039675266403426,0.69593541572266715,-3151.6467094656373,-6.0285944940895540E-003,119.16218170956724,217.86647299368724,260.73052429982266,326.40367701384133,94.383504655598955,78.471999999999994,-12.675333333333356,0.49656542963861600,-13.248720055474223,0.12099683877556118
20220221130000,421.38038859791953,1.9859172519940491,0.42514528748718300,0,4.3688934773214205,0,2.5129742631880059,0,8.4779881342487678E-002,0,16.129195044965115,2.5368072568953193,7.9690853552249905,1.0689191856993849,0.80680735702934736,0.63042276481030979,0.57992604217142740,-3730.6830541614913,-5.0929011454902166E-003,117.12442700859786,214.14080749178700,256.27185424229458,320.82195118685240,94.399110446180558,84.756666666666661,-13.189666666666653,0.33724972797825220,-13.767701177385050,0.15777878611076818
20220221133000,421.56744019806081,1.9639675516176782,0.54269033216378526,0,9.4592738678097081,0,2.5242330876011700,1,0.24852947312497836,0,20.477136289296169,2.9762045349577479,7.8486435675204378,1.2853124135059275,0.89125637909176725,0.74714388582174340,0.65488074690545317,-2481.5658084211645,-7.6564562324012214E-003,112.68374715643033,206.02182843982663,246.55550993328177,308.65824109532770,94.416457484016433,85.283333333333331,-13.400333333333322,0.32006911990242942,-13.960643953184615,5.0248251876975014E-002
20220221140000,421.66782536869550,1.9369916565727414,0.63621903049201944,0,20.116780966174044,1,2.5908935561848527,1,3.7552573566458781E-002,2,15.557247470902780,2.9909722313452929,8.3765726470324058,1.3170184432405723,1.0023086220551429,0.83420015054678187,0.70884624407469110,-1479.9242874419119,-1.2838494618425379E-002,109.92091192579511,200.97048447712319,240.51034134117546,301.09040736381155,94.430787833984382,84.966666666666669,-13.522666666666680,0.32371628573708278,-14.103497988806794,0.11052952435313591
20220221143000,421.84325707699134,1.9016433693227370,0.78672642464512543,0,19.162576573318116,0,3.8809205302983796,0,0.16792034653452628,1,16.530541519077644,3.5912410660791028,9.3268459187234818,1.6021605364952598,1.0297736133162354,0.85894345073530987,0.78790278497451238,-2133.5003648224124,-8.9055527307498328E-003,116.85878058553389,213.65512110684486,255.69061168555240,320.09430447856209,94.427687127170145,84.989999999999995,-13.752333333333354,0.31721796016857412,-14.326237572563969,9.5666672295025415E-002
20220221150000,421.98016284475557,1.9068102394183222,0.50378255697210794,0,9.9044297149160219,0,1.9932087520092276,0,0.24689039323040074,0,15.255534832620583,3.0137278813314148,8.2754631366450866,1.3782243547229134,0.95842021889734474,0.75056101434482714,0.63029114399129038,-2113.5937235301935,-8.9894286628868190E-003,108.88775951646124,199.08155236580023,238.24977204391479,298.26044285255244,94.457691221788195,85.853333333333339,-13.838999999999999,0.29686448170209273,-14.407124213324607,7.2147571994497964E-002
20220221153000,421.98140913849221,1.9419240044633996,0.61478097820278765,0,21.928058382703089,0,2.6654800929296645,0,0.20710119558022388,0,15.302037006881875,3.0129060216667543,7.6159335125808516,1.3797795660261800,0.97148686660229866,0.77685602972220646,0.69647003053462697,-1288.2753349228108,-1.4748400039141026E-002,114.73724393969606,209.77627548884428,251.04862415179969,314.28308692458302,94.479422381076390,86.019999999999996,-13.636333333333312,0.29825907875088831,-14.200801196628106,0.10125569227104227
20220221160000,421.85568887185406,1.9914209583433746,0.71842176299087745,0,38.379140892099933,0,4.5537916299886483,0,0.35350991775650431,0,18.314948095733115,2.9977687117361405,7.9134041502672101,1.3521547087520154,0.94585848187159083,0.79306924524693168,0.75349005767459487,-932.04903978981622,-2.0385193470382885E-002,120.18991662791858,219.74550020367400,262.97923995993102,329.21880217798952,94.478048902777786,85.353333333333339,-13.231666666666683,0.32294515998959639,-13.799415971544079,0.19126529961741301
20220221163000,421.77763281245478,2.0685282377141330,0.62351910271110733,0,32.647562122909399,1,2.6956816245908821,1,0.53945312518604660,0,25.823925178993136,2.9075288772931911,8.9852471133858192,1.3774336163835295,1.0357959173730620,0.76003835024551225,0.70294961866722738,-889.44322670772374,-2.1361678215627709E-002,117.63210109411668,215.06899763446040,257.38266078000436,322.21254915896617,94.443947941923838,84.206666666666663,-12.600333333333310,0.36650456796408010,-13.159499276357565,0.20396182186356285
20220221170000,421.56385990928794,2.1593845956597617,0.83277848359788464,0,49.734906725934877,0,6.5043067422565848,0,0.68225468148864887,0,35.328313872110158,3.3425062230830638,9.7874445584550802,1.6329243162052942,1.0554900469246775,0.89878560681761199,0.81348997797869127,-904.61413005551378,-2.1003430489013056E-002,115.61435965384250,211.37992275601312,252.96778035337380,316.68564275359432,94.402493407335072,83.833333333333329,-12.017333333333340,0.39321827410754934,-12.620691739400172,0.19225781429305869
20220221173000,421.11484603319815,2.1777425954902139,1.2392309601440665,0,60.930626172789907,0,15.316854052615568,0,0.99855711201859054,1,32.982713759379692,4.5156239411761865,11.827355146167159,2.0748187178576556,1.4762303215751278,1.0594353587868071,0.99325100452465132,-1343.7032753247913,-1.4140026558622060E-002,118.91661527822247,217.41749923779270,260.19321738351420,325.73103251378126,94.369484692491326,81.959999999999994,-11.634666666666647,0.45246937751813876,-12.308142796834261,0.11835430539878568
20220221180000,421.07113422570580,2.1945187988667119,1.1913821292644435,0,65.286214036128584,0,12.154338590951046,0,0.71600848439473408,0,31.030365031825170,3.7232639042626556,10.509717793847843,1.8330648090678716,1.3363757357572252,1.0113240734106563,0.97427625152506747,-1183.1650208377805,-1.6058622140930432E-002,121.53134850528697,222.19806550325754,265.91433422961472,332.89319191267725,94.325999456597231,81.980000000000004,-11.547666666666657,0.45512854324753221,-12.204317198011609,0.11506169849307309
20220221183000,421.06771219654371,2.2353783915250993,1.0501595076309727,0,58.729770655645247,0,13.609897329176572,1,0.24466064586381342,1,27.493117163625470,3.9098882516721183,11.172183835769898,1.7931677685206711,1.4084499402208297,0.99489157816071561,0.91524752480047189,-1089.8043320896320,-1.7434322327906957E-002,117.12919179481891,214.14951904064969,256.28227974132261,320.83500267450080,94.255329694444455,82.736666666666665,-11.441333333333318,0.43974416053333015,-12.090405765957257,0.13841545655521534
20220221190000,421.08013645943868,2.2463281828750432,0.98548498412032859,0,63.260314202558810,0,8.5935534284992556,0,0.33411868586008392,1,24.423003753811145,3.4593859179092727,10.790827386240631,1.6467267136806880,1.2495517005932604,0.95790733786543858,0.88735535345078520,-921.51356430605449,-2.0618253204235736E-002,117.78070749260806,215.34069752648256,257.70781615763417,322.61960510741795,94.178697819444437,81.613333333333330,-11.219333333333338,0.47674292106636929,-11.865019296858009,0.12202047344398900
20220221193000,421.28703203001737,2.2818885033356526,0.85536152002775145,0,48.902416728391529,0,5.2728817017662335,0,0.12333853310813722,2,19.170972738606565,3.8203707339872719,11.966191102782551,1.8271523513280132,1.4322704108612838,0.90819875991074339,0.82697168416390232,-964.65198775212889,-1.9696222307357257E-002,116.17232674735092,212.40006455742375,254.18862954181071,318.21400106628249,94.144101113932294,82.393333333333331,-11.146333333333359,0.45918646859160733,-11.785595202975799,0.13087180127576420
20220221200000,421.39480269474313,2.2450052149304716,1.1894033195128508,0,56.224206771241519,0,10.740911292529610,0,0.31509785362520565,0,27.547840852164114,3.8217108729589429,11.403773898823403,1.8989854988466748,1.3914067697358086,1.0746282226920454,0.97497795099027096,-1374.8230689098123,-1.3819960131354466E-002,115.83615717566710,211.78543936459991,253.45308016346519,317.29318052805831,94.131842099175358,81.920666666666662,-11.279999999999973,0.46650824648819256,-11.928513857947451,0.12483312802833255
20220221203000,421.52254272355827,2.2522993587402729,1.1654186178550048,0,45.613215707294373,0,14.230223756962536,0,0.83864166760118264,0,35.668002144885151,4.1129348564192378,11.381949057070321,1.9055626661303455,1.3037420450403110,0.98668413138573052,0.96454647366199553,-1640.5791487987906,-1.1581276047493068E-002,122.96199790084094,224.81374888055231,269.04463917738042,336.81196225178184,94.111572641276041,84.543333333333337,-11.636000000000024,0.38763420943550159,-12.262672668457071,0.10134212605707806
20220221210000,421.52382941525610,2.2063045609398708,1.0279674958417466,0,52.730193736498784,1,13.489321140664044,1,0.47049525489728339,0,39.617163671422702,3.8159956555880870,11.652864747209392,1.7112837145088173,1.3225328055608783,0.98669532751751798,0.90520814918944426,-1173.0486264604433,-1.6197112013447045E-002,116.87112015511784,213.67768177554819,255.71761104391510,320.12810447137178,94.116376424874971,85.326666666666668,-12.007333333333349,0.35718329852798436,-12.623198274070319,0.12911475179992959
20220221213000,421.51200756392728,2.1322622578031001,1.0841978543136570,0,38.759270248461178,0,8.6470374007808317,1,0.41955795144558605,0,18.847421627631775,3.6372683210331243,10.660923341294049,1.7361221989733893,1.1516632610911268,0.91962624356957545,0.92881601787600576,-1724.2472727762561,-1.1019301175641472E-002,126.21459320347405,230.76053045583137,276.16141789378236,345.72132469703286,94.135256362878579,85.186666666666667,-12.408333333333303,0.34913274217775242,-13.013691205201894,0.18595454538182599
20220221220000,421.39050553433543,1.9863702808733483,1.1598666186886202,0,23.623599660839137,0,6.7685789941640238,0,0.43724601126651380,0,24.188240171035289,4.1494569388236755,11.771930246805086,2.0837606205983494,1.3498642235429110,1.0032298947874796,0.95992271684269093,-3123.6015466848476,-6.0827220489006193E-003,120.87139749866350,220.99146458257175,264.47034109772898,331.08548386201477,94.170948477213543,81.326666666666668,-12.706999999999994,0.42961804082676880,-13.301893449995248,8.1990085964362608E-002
20220221223000,421.32943682980550,1.9146234934999269,1.5232999087136272,0,19.687364343852764,1,-0.52221365906826256,2,0.19117277743795261,2,31.645774253303387,4.3323201452044762,13.737798480595362,2.2260538899758897,1.5761675089921476,1.0847909943213387,1.0996575032742162,-5635.1441511420880,-3.3716972432993085E-003,126.58551021694808,231.43868505437587,276.97299574513892,346.73732386159998,94.180875290798610,79.459999999999994,-12.873333333333335,0.46624529665142689,-13.474143489696360,0.10343544201378591